SSEC Globe Logo

Space Science and Engineering Center

Surface Aviation Observations

KAIG 171215Z AUTO 00000KT 10SM CLR 11/10 A3004 RMK AO2
     T01110103=
KAIG 171215Z AUTO 00000KT 10SM CLR 11/10 A3004 RMK AO2
     T01110103=
KAIG 171155Z AUTO 00000KT 10SM CLR 10/09 A3005 RMK AO2
     T00990094 10099 20060=
KAIG 171155Z AUTO 00000KT 10SM CLR 10/09 A3005 RMK AO2
     T00990094 10099 20060=
KC29 171215Z AUTO 07004KT 10SM OVC024 15/12 A3003 RMK AO1
     T01450119=
KC29 171215Z AUTO 07004KT 10SM OVC024 15/12 A3003 RMK AO1
     T01450119=
KC29 171155Z AUTO 07003KT 10SM OVC024 14/12 A3002 RMK AO1
     T01420121 10142 20116=
KC29 171155Z AUTO 07003KT 10SM OVC024 14/12 A3002 RMK AO1
     T01420121 10142 20116=
KBCK 171215Z AUTO 00000KT 10SM SCT002 OVC014 11/11 A3003 RMK
     AO2 T01100110=
KBCK 171215Z AUTO 00000KT 10SM SCT002 OVC014 11/11 A3003 RMK
     AO2 T01100110=
KBCK 171155Z AUTO 00000KT 7SM SCT002 OVC014 11/11 A3003 RMK
     AO2 70006 T01070107 10107 20063=
KBCK 171155Z AUTO 00000KT 7SM SCT002 OVC014 11/11 A3003 RMK
     AO2 70006 T01070107 10107 20063=
KUBE 171215Z AUTO 19006KT 4SM BR OVC003 12/12 A3001 RMK AO2=
KUBE 171215Z AUTO 19006KT 4SM BR OVC003 12/12 A3001 RMK AO2=
KUBE 171155Z AUTO 20006KT 7SM OVC003 12/12 A3001 RMK AO2=
KUBE 171155Z AUTO 20006KT 7SM OVC003 12/12 A3001 RMK AO2=
KPVB 171215Z AUTO 07007KT 10SM OVC008 14/14 A3002 RMK AO1
     T01410141=
KPVB 171215Z AUTO 07007KT 10SM OVC008 14/14 A3002 RMK AO1
     T01410141=
KPVB 171155Z AUTO 07004KT 10SM BKN006 OVC010 14/14 A3002 RMK
     AO1 T01410141 10149 20140=
KPVB 171155Z AUTO 07004KT 10SM BKN006 OVC010 14/14 A3002 RMK
     AO1 T01410141 10149 20140=
KEZS 171215Z AUTO 02004KT 10SM BKN060 13/12 A3004 RMK AO2
     T01320115=
KEZS 171215Z AUTO 02004KT 10SM BKN060 13/12 A3004 RMK AO2
     T01320115=
KEZS 171155Z AUTO 00000KT 10SM SCT060 13/11 A3004 RMK AO2
     T01250107 10125 20088=
KEZS 171155Z AUTO 00000KT 10SM SCT060 13/11 A3004 RMK AO2
     T01250107 10125 20088=
KARV 171215Z AUTO 19004KT 10SM OVC100 14/12 A3003 RMK AO2
     T01380122=
KARV 171215Z AUTO 19004KT 10SM OVC100 14/12 A3003 RMK AO2
     T01380122=
KARV 171155Z AUTO 00000KT 10SM SCT100 12/11 A3003 RMK AO2
     T01210105 10125 20075=
KARV 171155Z AUTO 00000KT 10SM SCT100 12/11 A3003 RMK AO2
     T01210105 10125 20075=
KASX 171153Z AUTO 00000KT 10SM OVC085 09/09 A3000 RMK AO2
     SLP163 T00940094 10094 20044 53004=
KASX 171153Z AUTO 00000KT 10SM OVC085 09/09 A3000 RMK AO2
     SLP163 T00940094 10094 20044 53004=
KATW 171145Z 03004KT 10SM OVC055 13/08 A3001=
KATW 171145Z 03004KT 10SM OVC055 13/08 A3001=
KAUW 171154Z AUTO 00000KT 10SM CLR 11/09 A3002 RMK AO2
     SLP173 70001 T01060094 10106 20072 52014=
KAUW 171154Z AUTO 00000KT 10SM CLR 11/09 A3002 RMK AO2
     SLP173 70001 T01060094 10106 20072 52014=
KBUU 171215Z AUTO 03003KT 10SM OVC017 12/11 A3002 RMK AO2
     T01220106=
KBUU 171215Z AUTO 03003KT 10SM OVC017 12/11 A3002 RMK AO2
     T01220106=
KBUU 171155Z AUTO 01004KT 10SM BKN017 OVC023 12/11 A3001 RMK
     AO2 T01200105 10120 20109=
KBUU 171155Z AUTO 01004KT 10SM BKN017 OVC023 12/11 A3001 RMK
     AO2 T01200105 10120 20109=
KCLI 171215Z AUTO 01004KT 10SM SCT055 12/10 A3004 RMK AO2
     T01220101=
KCLI 171215Z AUTO 01004KT 10SM SCT055 12/10 A3004 RMK AO2
     T01220101=
KCLI 171155Z AUTO 03003KT 10SM BKN055 12/10 A3003 RMK AO2
     70004 T01150099 10115 20096=
KCLI 171155Z AUTO 03003KT 10SM BKN055 12/10 A3003 RMK AO2
     70004 T01150099 10115 20096=
KCMY 171215Z AUTO 00000KT 10SM OVC014 12/11 A3003 RMK AO2
     T01220107=
KCMY 171215Z AUTO 00000KT 10SM OVC014 12/11 A3003 RMK AO2
     T01220107=
KCMY 171155Z AUTO 00000KT 10SM OVC014 12/11 A3003 RMK AO2
     T01190106 10119 20099=
KCMY 171155Z AUTO 00000KT 10SM OVC014 12/11 A3003 RMK AO2
     T01190106 10119 20099=
KCWA 171148Z 00000KT 10SM FEW050 SCT130 09/09 A3004=
KCWA 171148Z 00000KT 10SM FEW050 SCT130 09/09 A3004=
KDLL 171215Z AUTO 00000KT 10SM OVC020 11/11 A3003 RMK AO2
     T01140106=
KDLL 171215Z AUTO 00000KT 10SM OVC020 11/11 A3003 RMK AO2
     T01140106=
KDLL 171155Z AUTO 00000KT 10SM OVC020 11/10 A3003 RMK AO2
     70002 T01110104 10127 20092=
KDLL 171155Z AUTO 00000KT 10SM OVC020 11/10 A3003 RMK AO2
     70002 T01110104 10127 20092=
KEAU 171208Z 15003KT 10SM OVC009 12/11 A3001 RMK AO2
     T01220106=
KEAU 171156Z 14003KT 10SM OVC010 12/11 A3001 RMK AO2 SLP164
     T01220106 10122 20078 51013=
KEAU 171156Z 14003KT 10SM OVC010 12/11 A3001 RMK AO2 SLP164
     T01220106 10122 20078 51013=
KEFT 171215Z AUTO 05004KT 1 3/4SM BR OVC003 13/12 A3002 RMK
     AO2 T01300123=
KEFT 171215Z AUTO 05004KT 1 3/4SM BR OVC003 13/12 A3002 RMK
     AO2 T01300123=
KEFT 171155Z AUTO 06005KT 7SM OVC005 13/12 A3001 RMK AO2
     T01310122 10140 20118=
KEFT 171155Z AUTO 06005KT 7SM OVC005 13/12 A3001 RMK AO2
     T01310122 10140 20118=
KEGV 171215Z AUTO 00000KT 10SM CLR 12/11 A3004 RMK AO2
     T01240106=
KEGV 171215Z AUTO 00000KT 10SM CLR 12/11 A3004 RMK AO2
     T01240106=
KEGV 171155Z AUTO 00000KT 10SM CLR 12/11 A3003 RMK AO2
     T01150109 10122 20072=
KEGV 171155Z AUTO 00000KT 10SM CLR 12/11 A3003 RMK AO2
     T01150109 10122 20072=
KENW 171153Z 05005KT 10SM OVC023 13/11 A3001 RMK AO2 SLP162
     70002 T01330111 10133 20128 53015=
KENW 171153Z 05005KT 10SM OVC023 13/11 A3001 RMK AO2 SLP162
     70002 T01330111 10133 20128 53015=
KETB 171215Z AUTO 07004KT 10SM OVC022 12/10 A3003 RMK AO2=
KETB 171155Z AUTO 06005KT 10SM OVC022 12/10 A3003 RMK AO2=
KETB 171155Z AUTO 06005KT 10SM OVC022 12/10 A3003 RMK AO2=
KFLD 171153Z AUTO 10003KT 10SM OVC024 14/10 A3002 RMK AO2
     SLP168 70019 T01390100 10139 20128 51014=
KFLD 171153Z AUTO 10003KT 10SM OVC024 14/10 A3002 RMK AO2
     SLP168 70019 T01390100 10139 20128 51014=
KGRB 171153Z AUTO 36004KT 10SM OVC065 14/12 A3003 RMK AO2
     SLP171 70007 T01440117 10144 20122 51014=
KGRB 171153Z AUTO 36004KT 10SM OVC065 14/12 A3003 RMK AO2
     SLP171 70007 T01440117 10144 20122 51014=
KHYR 171153Z AUTO 19006KT 10SM CLR 13/11 A3000 RMK AO2
     SLP161 60000 T01280111 10128 20072 53005=
KHYR 171153Z AUTO 19006KT 10SM CLR 13/11 A3000 RMK AO2
     SLP161 60000 T01280111 10128 20072 53005=
KISW 171154Z AUTO 04003KT 10SM SCT055 12/11 A3004 RMK AO2
     SLP174 70006 T01220111 10128 20106 53014=
KISW 171154Z AUTO 04003KT 10SM SCT055 12/11 A3004 RMK AO2
     SLP174 70006 T01220111 10128 20106 53014=
KJVL 171215Z 04005KT 10SM OVC009 14/12 A3002=
KJVL 171145Z 04007KT 10SM OVC011 14/12 A3000=
KJVL 171145Z 04007KT 10SM OVC011 14/12 A3000=
KLNL 171215Z AUTO 00000KT 10SM SCT080 BKN120 12/11 A3005 RMK
     AO2 T01220108=
KLNL 171215Z AUTO 00000KT 10SM SCT080 BKN120 12/11 A3005 RMK
     AO2 T01220108=
KLNL 171155Z AUTO 00000KT 10SM SCT080 OVC120 12/11 A3005 RMK
     AO2 T01170110 10117 20081=
KLNL 171155Z AUTO 00000KT 10SM SCT080 OVC120 12/11 A3005 RMK
     AO2 T01170110 10117 20081=
KLNR 171156Z AUTO 06003KT 10SM OVC018 14/11 A3003 RMK AO2
     SLP163 T01390106 10144 20139 53019=
KLNR 171156Z AUTO 06003KT 10SM OVC018 14/11 A3003 RMK AO2
     SLP163 T01390106 10144 20139 53019=
KLSE 171205Z 11003KT 10SM OVC014 16/11 A3001 RMK AO2
     T01560106=
KLSE 171153Z 10005KT 10SM OVC015 15/11 A3001 RMK AO2 SLP158
     T01500106 10161 20150 51013=
KLSE 171153Z 10005KT 10SM OVC015 15/11 A3001 RMK AO2 SLP158
     T01500106 10161 20150 51013=
KLUM 171215Z AUTO 13005KT 10SM OVC006 11/10 A3002 RMK AO2
     T01130100=
KLUM 171215Z AUTO 13005KT 10SM OVC006 11/10 A3002 RMK AO2
     T01130100=
KLUM 171155Z AUTO 13006KT 10SM OVC008 11/10 A3001 RMK AO2
     70001 T01110098 10116 20108=
KLUM 171155Z AUTO 13006KT 10SM OVC008 11/10 A3001 RMK AO2
     70001 T01110098 10116 20108=
KMDZ 171215Z AUTO 00000KT 10SM CLR 11/10 A3003 RMK AO2
     T01060100 TSNO=
KMDZ 171215Z AUTO 00000KT 10SM CLR 11/10 A3003 RMK AO2
     T01060100 TSNO=
KMDZ 171155Z AUTO 00000KT 10SM CLR 10/09 A3003 RMK AO2
     T00950093 10095 20057 TSNO=
KMDZ 171155Z AUTO 00000KT 10SM CLR 10/09 A3003 RMK AO2
     T00950093 10095 20057 TSNO=
KMFI 171154Z AUTO 00000KT 10SM CLR 12/11 A3002 RMK AO2
     SLP169 70002 T01170106 10128 20083=
KMFI 171154Z AUTO 00000KT 10SM CLR 12/11 A3002 RMK AO2
     SLP169 70002 T01170106 10128 20083=
KMKE 171152Z 36004KT 10SM OVC020 13/09 A3001 RMK AO2 SLP164
     70003 T01330089 10133 20111 51015 $=
KMKE 171152Z 36004KT 10SM OVC020 13/09 A3001 RMK AO2 SLP164
     70003 T01330089 10133 20111 51015 $=
KMRJ 171215Z AUTO 05003KT 10SM OVC014 15/14 A3003 RMK AO2=
KMRJ 171215Z AUTO 05003KT 10SM OVC014 15/14 A3003 RMK AO2=
KMRJ 171155Z AUTO 00000KT 10SM OVC014 15/14 A3002 RMK AO2=
KMRJ 171155Z AUTO 00000KT 10SM OVC014 15/14 A3002 RMK AO2=
KMSN 171153Z 10004KT 10SM OVC020 14/11 A3001 RMK AO2 SLP162
     T01390111 10139 20122 51017 $=
KMSN 171153Z 10004KT 10SM OVC020 14/11 A3001 RMK AO2 SLP162
     T01390111 10139 20122 51017 $=
KMTW 171156Z AUTO 05003KT 10SM OVC060 12/09 A3004 RMK AO2
     SLP173 7//// T01170094 10117 20100 51016=
KMTW 171156Z AUTO 05003KT 10SM OVC060 12/09 A3004 RMK AO2
     SLP173 7//// T01170094 10117 20100 51016=
KMWC 171215Z AUTO 02005KT 10SM OVC019 12/08 A3003 RMK AO2=
KMWC 171215Z AUTO 02005KT 10SM OVC019 12/08 A3003 RMK AO2=
KMWC 171155Z AUTO 01005KT 10SM OVC021 12/08 A3003 RMK AO2=
KMWC 171155Z AUTO 01005KT 10SM OVC021 12/08 A3003 RMK AO2=
KOEO 171215Z AUTO 15005KT 10SM OVC007 15/14 A3001 RMK AO2
     T01540136 PWINO=
KOEO 171215Z AUTO 15005KT 10SM OVC007 15/14 A3001 RMK AO2
     T01540136 PWINO=
KOEO 171155Z AUTO 15006KT 10SM OVC007 15/14 A3002 RMK AO2
     T01530136 10153 20138 PWINO=
KOEO 171155Z AUTO 15006KT 10SM OVC007 15/14 A3002 RMK AO2
     T01530136 10153 20138 PWINO=
KOSH 171153Z 09006KT 10SM OVC060 14/11 A3002 RMK AO2 SLP162
     70013 T01440106 10144 20117 53013=
KOSH 171153Z 09006KT 10SM OVC060 14/11 A3002 RMK AO2 SLP162
     70013 T01440106 10144 20117 53013=
KOVS 171153Z AUTO 00000KT FEW010 OVC015 15/12 A3002 RMK AO2
     SLP167 T01500122 10156 20150 53013 TSNO $=
KOVS 171153Z AUTO 00000KT FEW010 OVC015 15/12 A3002 RMK AO2
     SLP167 T01500122 10156 20150 53013 TSNO $=
KPBH 171215Z AUTO 00000KT 10SM SCT090 11/11 A3003 RMK AO2
     T01080108=
KPBH 171215Z AUTO 00000KT 10SM SCT090 11/11 A3003 RMK AO2
     T01080108=
KPBH 171155Z AUTO 00000KT 10SM OVC090 10/10 A3002 RMK AO2
     T00950095 10095 20055=
KPBH 171155Z AUTO 00000KT 10SM OVC090 10/10 A3002 RMK AO2
     T00950095 10095 20055=
KPCZ 171215Z AUTO 00000KT 10SM BKN060 14/11 A3004 RMK AO2
     T01420114=
KPCZ 171215Z AUTO 00000KT 10SM BKN060 14/11 A3004 RMK AO2
     T01420114=
KPCZ 171155Z AUTO 00000KT 10SM OVC060 14/11 A3003 RMK AO2
     70012 T01370114 10137 20120=
KPCZ 171155Z AUTO 00000KT 10SM OVC060 14/11 A3003 RMK AO2
     70012 T01370114 10137 20120=
KPDC 171215Z AUTO 07005KT 10SM OVC011 15/12 A3002 RMK AO2
     T01480123=
KPDC 171215Z AUTO 07005KT 10SM OVC011 15/12 A3002 RMK AO2
     T01480123=
KPDC 171155Z AUTO 07005KT 10SM OVC011 15/12 A3001 RMK AO2
     70001 T01480123 10150 20147=
KPDC 171155Z AUTO 07005KT 10SM OVC011 15/12 A3001 RMK AO2
     70001 T01480123 10150 20147=
KRAC 171153Z AUTO 03005KT 10SM OVC021 12/09 A3002 RMK AO2
     SLP168 70001 T01220089 10122 20106 53015=
KRAC 171153Z AUTO 03005KT 10SM OVC021 12/09 A3002 RMK AO2
     SLP168 70001 T01220089 10122 20106 53015=
KRCX 171235Z AUTO 14004KT 10SM CLR 13/12 A3004 RMK AO2
     T01260115=
KRCX 171235Z AUTO 14004KT 10SM CLR 13/12 A3004 RMK AO2
     T01260115=
KRCX 171215Z AUTO 15003KT 10SM CLR 12/11 A3005 RMK AO2
     T01150110=
KRCX 171215Z AUTO 15003KT 10SM CLR 12/11 A3005 RMK AO2
     T01150110=
KRCX 171155Z AUTO 13003KT 10SM CLR 11/11 A3004 RMK AO2
     T01110108 10115 20095=
KRCX 171155Z AUTO 13003KT 10SM CLR 11/11 A3004 RMK AO2
     T01110108 10115 20095=
KRHI 171153Z AUTO 00000KT 10SM CLR 12/09 A3004 RMK AO2
     SLP171 T01220094 10122 20067 53013=
KRHI 171153Z AUTO 00000KT 10SM CLR 12/09 A3004 RMK AO2
     SLP171 T01220094 10122 20067 53013=
KRNH 171215Z AUTO 15004KT 10SM OVC006 15/13 A3000 RMK AO2
     T01460125=
KRNH 171215Z AUTO 15004KT 10SM OVC006 15/13 A3000 RMK AO2
     T01460125=
KRNH 171155Z AUTO 16006KT 10SM OVC008 15/13 A3000 RMK AO2
     T01450125 10145 20136=
KRNH 171155Z AUTO 16006KT 10SM OVC008 15/13 A3000 RMK AO2
     T01450125 10145 20136=
KRPD 171215Z AUTO 16005KT 5SM BR OVC008 13/12 A3002 RMK AO2
     T01310121=
KRPD 171215Z AUTO 16005KT 5SM BR OVC008 13/12 A3002 RMK AO2
     T01310121=
KRPD 171155Z AUTO 16005KT 7SM OVC008 13/12 A3002 RMK AO2
     T01330122 10133 20127=
KRPD 171155Z AUTO 16005KT 7SM OVC008 13/12 A3002 RMK AO2
     T01330122 10133 20127=
KRRL 171215Z AUTO 00000KT 10SM CLR 10/09 A3005 RMK AO2
     T00960092 TSNO=
KRRL 171215Z AUTO 00000KT 10SM CLR 10/09 A3005 RMK AO2
     T00960092 TSNO=
KRRL 171155Z AUTO 00000KT 10SM SCT002 08/08 A3005 RMK AO2
     T00800080 10083 20047 TSNO=
KRRL 171155Z AUTO 00000KT 10SM SCT002 08/08 A3005 RMK AO2
     T00800080 10083 20047 TSNO=
KRYV 171215Z AUTO 10003KT 10SM OVC023 13/13 A3002 RMK AO2
     T01340131=
KRYV 171215Z AUTO 10003KT 10SM OVC023 13/13 A3002 RMK AO2
     T01340131=
KRYV 171155Z AUTO 00000KT 10SM OVC021 13/13 A3002 RMK AO2
     70001 T01310130 10131 20110=
KRYV 171155Z AUTO 00000KT 10SM OVC021 13/13 A3002 RMK AO2
     70001 T01310130 10131 20110=
KRZN 171215Z AUTO 19006KT 10SM OVC006 14/13 A3000 RMK AO2
     T01410130=
KRZN 171215Z AUTO 19006KT 10SM OVC006 14/13 A3000 RMK AO2
     T01410130=
KRZN 171155Z AUTO 17004KT 10SM OVC006 14/13 A2999 RMK AO2
     60001 70001 T01380128 10143 20125=
KRZN 171155Z AUTO 17004KT 10SM OVC006 14/13 A2999 RMK AO2
     60001 70001 T01380128 10143 20125=
KSBM 171153Z AUTO 07007KT 10SM OVC025 12/09 A3003 RMK AO2
     SLP170 70013 T01220089 10122 20117 51018=
KSBM 171153Z AUTO 07007KT 10SM OVC025 12/09 A3003 RMK AO2
     SLP170 70013 T01220089 10122 20117 51018=
KSTE 171215Z AUTO 08003KT 10SM CLR 11/10 A3004 RMK AO2
     T01080100=
KSTE 171215Z AUTO 08003KT 10SM CLR 11/10 A3004 RMK AO2
     T01080100=
KSTE 171155Z AUTO 05003KT 10SM CLR 10/10 A3004 RMK AO2 70005
     T01000100 10100 20067=
KSTE 171155Z AUTO 05003KT 10SM CLR 10/10 A3004 RMK AO2 70005
     T01000100 10100 20067=
KSUE 171156Z AUTO 00000KT 10SM CLR 13/11 A3004 RMK AO2
     SLP173 7//// T01330111 10133 20078 53014=
KSUE 171156Z AUTO 00000KT 10SM CLR 13/11 A3004 RMK AO2
     SLP173 7//// T01330111 10133 20078 53014=
KSUW 171215Z AUTO 00000KT 7SM OVC010 08/07 A3000 RMK AO2
     T00820072=
KSUW 171215Z AUTO 00000KT 7SM OVC010 08/07 A3000 RMK AO2
     T00820072=
KSUW 171155Z AUTO 00000KT 10SM OVC010 08/07 A3000 RMK AO2
     T00800070 10080 20067=
KSUW 171155Z AUTO 00000KT 10SM OVC010 08/07 A3000 RMK AO2
     T00800070 10080 20067=
KTKV 171215Z AUTO 00000KT 1/2SM OVC001 10/10 A3004 RMK AO2
     T00980095 PWINO=
KTKV 171215Z AUTO 00000KT 1/2SM OVC001 10/10 A3004 RMK AO2
     T00980095 PWINO=
KTKV 171155Z AUTO 00000KT M1/4SM OVC001 08/08 A3005 RMK AO2
     T00830080 10083 20036 PWINO=
KTKV 171155Z AUTO 00000KT M1/4SM OVC001 08/08 A3005 RMK AO2
     T00830080 10083 20036 PWINO=
KUES 171145Z 02004KT 10SM BKN018 OVC025 12/09 A3003=
KUES 171145Z 02004KT 10SM BKN018 OVC025 12/09 A3003=
KUNU 171215Z AUTO 00000KT 10SM OVC022 13/11 A3004 RMK AO2
     T01270110 TSNO=
KUNU 171215Z AUTO 00000KT 10SM OVC022 13/11 A3004 RMK AO2
     T01270110 TSNO=
KUNU 171155Z AUTO 00000KT 10SM OVC022 13/11 A3003 RMK AO2
     T01250113 10128 20117 TSNO=
KUNU 171155Z AUTO 00000KT 10SM OVC022 13/11 A3003 RMK AO2
     T01250113 10128 20117 TSNO=
KVOK 171156Z 11003KT 10SM BKN019 14/13 A3003 RMK AO2A SLP173
     52016=
METAR KVOK 171156Z 11003KT 10SM BKN019 14/13 A3003 RMK AO2A
     SLP173 52016=
KVOK 171156Z 11003KT 10SM BKN019 14/13 A3003 RMK AO2A SLP173
     52016=
KVOK 171156Z 11003KT 10SM BKN019 14/13 A3003 RMK AO2A SLP173
     52016=
METAR KVOK 171156Z 11003KT 10SM BKN019 14/13 A3003 RMK AO2A
     SLP173 52016=
KY50 171204Z AUTO 00000KT 10SM BKN022 OVC055 13/12 A3004 RMK
     AO2 $=
KY50 171156Z AUTO 00000KT 10SM SCT022 OVC055 13/12 A3004 RMK
     AO2 SLP197 6//// 7//// T01280117 10128 20122 $=
KY50 171156Z AUTO 00000KT 10SM SCT022 OVC055 13/12 A3004 RMK
     AO2 SLP197 6//// 7//// T01280117 10128 20122 $=
KY51 171215Z AUTO 10004KT 10SM 13/13 A3002 RMK AO1
     T01300130=
KY51 171215Z AUTO 10004KT 10SM 13/13 A3002 RMK AO1
     T01300130=
KY51 171155Z AUTO 00000KT 10SM 13/13 A3002 RMK AO1 T01300130
     10131 20125=
KY51 171155Z AUTO 00000KT 10SM 13/13 A3002 RMK AO1 T01300130
     10131 20125=
KY23 171215Z AUTO 15004KT 10SM OVC010 12/12 A3002 RMK AO2
     T01240117=
KY23 171215Z AUTO 15004KT 10SM OVC010 12/12 A3002 RMK AO2
     T01240117=
KY23 171155Z AUTO 13005KT 10SM OVC010 12/12 A3002 RMK AO2
     T01210115 10123 20108=
KY23 171155Z AUTO 13005KT 10SM OVC010 12/12 A3002 RMK AO2
     T01210115 10123 20108=
K3D2 171215Z AUTO 05003KT 10SM CLR 12/10 A3004 RMK AO2
     T01210101=
K3D2 171215Z AUTO 05003KT 10SM CLR 12/10 A3004 RMK AO2
     T01210101=
K3D2 171155Z AUTO 00000KT 10SM CLR 12/10 A3004 RMK AO2
     T01200099 10120 20079=
K3D2 171155Z AUTO 00000KT 10SM CLR 12/10 A3004 RMK AO2
     T01200099 10120 20079=
KD25 171215Z AUTO 00000KT 10SM BKN100 BKN120 11/11 A3002 RMK
     AO2 T01070107=
KD25 171215Z AUTO 00000KT 10SM BKN100 BKN120 11/11 A3002 RMK
     AO2 T01070107=
KD25 171155Z AUTO 00000KT 10SM SCT110 10/10 A3002 RMK AO2
     T01040104 10105 20050=
KD25 171155Z AUTO 00000KT 10SM SCT110 10/10 A3002 RMK AO2
     T01040104 10105 20050=
K82C 171215Z AUTO 00000KT 7SM OVC027 13/11 A3003 RMK AO2
     T01250114=
K82C 171215Z AUTO 00000KT 7SM OVC027 13/11 A3003 RMK AO2
     T01250114=
K82C 171155Z AUTO 00000KT 5SM BR SCT021 SCT027 12/12 A3003
     RMK AO2 70011 T01200115 10130 20104=
K82C 171155Z AUTO 00000KT 5SM BR SCT021 SCT027 12/12 A3003
     RMK AO2 70011 T01200115 10130 20104=
KOCQ 171215Z AUTO 02003KT 10SM CLR 12/11 A3004 RMK AO1
     T01180107=
KOCQ 171215Z AUTO 02003KT 10SM CLR 12/11 A3004 RMK AO1
     T01180107=
KOCQ 171155Z AUTO 00000KT 10SM CLR 11/10 A3004 RMK AO1
     T01060101 10106 20071=
KOCQ 171155Z AUTO 00000KT 10SM CLR 11/10 A3004 RMK AO1
     T01060101 10106 20071=
KC35 171215Z AUTO 00000KT 10SM OVC023 12/12 A3003 RMK AO2
     T01200119=
KC35 171215Z AUTO 00000KT 10SM OVC023 12/12 A3003 RMK AO2
     T01200119=
KC35 171155Z AUTO 00000KT 10SM OVC020 12/12 A3003 RMK AO2
     70017 T01150115 10121 20105=
KC35 171155Z AUTO 00000KT 10SM OVC020 12/12 A3003 RMK AO2
     70017 T01150115 10121 20105=
KOLG 171215Z AUTO 19007KT 10SM OVC006 12/11 A2999 RMK AO1=
KOLG 171215Z AUTO 19007KT 10SM OVC006 12/11 A2999 RMK AO1=
KOLG 171155Z AUTO 15003KT 10SM OVC008 11/11 A2999 RMK AO1=
KOLG 171155Z AUTO 15003KT 10SM OVC008 11/11 A2999 RMK AO1=
K2P2 171215Z AUTO 00000KT 10SM SCT120 12/09 A3004 RMK AO2
     T01150091=
K2P2 171215Z AUTO 00000KT 10SM SCT120 12/09 A3004 RMK AO2
     T01150091=
K2P2 171155Z AUTO 00000KT 10SM CLR 11/09 A3004 RMK AO2
     T01110090 10111 20037=
K2P2 171155Z AUTO 00000KT 10SM CLR 11/09 A3004 RMK AO2
     T01110090 10111 20037=
KDBQ 171153Z 00000KT 6SM BR OVC009 15/13 A3001 RMK AO2 CIG
     008V013 SLP163 T01500133 10150 20144 53017=
KDBQ 171153Z 00000KT 6SM BR OVC009 15/13 A3001 RMK AO2 CIG
     008V013 SLP163 T01500133 10150 20144 53017=
KRST 171154Z 15004KT 10SM OVC006 15/13 A3000 RMK AO2 SLP159
     T01500133 10150 20139 51011 $=
KRST 171154Z 15004KT 10SM OVC006 15/13 A3000 RMK AO2 SLP159
     T01500133 10150 20139 51011 $=
KMSP 171153Z 16006KT 10SM OVC014 16/14 A2998 RMK AO2 SLP151
     T01610139 10161 20144 52009=
KMSP 171153Z 16006KT 10SM OVC014 16/14 A2998 RMK AO2 SLP151
     T01610139 10161 20144 52009=
KRFD 171154Z 02005KT 10SM OVC011 15/12 A3003 RMK AO2 SLP167
     60000 70001 T01500122 10150 20139 53014=
KRFD 171154Z 02005KT 10SM OVC011 15/12 A3003 RMK AO2 SLP167
     60000 70001 T01500122 10150 20139 53014=
KORD 171207Z 01007KT 10SM OVC010 13/11 A2999 RMK AO2
     T01330106=
KORD 171151Z 01008KT 10SM OVC009 13/11 A2999 RMK AO2 CIG
     008V013 SLP154 T01280106 10133 20128 53017=
KORD 171151Z 01008KT 10SM OVC009 13/11 A2999 RMK AO2 CIG
     008V013 SLP154 T01280106 10133 20128 53017=